{"data":{"norad_id":68414,"intl_designator":"2026-066C","name":"XINZHENGCHENG 01","alt_names":[],"object_type":"PAYLOAD","status":"ACTIVE","operator":null,"country":"PRC","launch_date":"2026-03-30","launch_site_code":"JSC","launch_vehicle":null,"mission":null,"orbit_class":"UNKNOWN","rcs_meters":null,"size_class":null,"mass_kg":null,"dimensions":null,"purposes":[],"wikipedia_slug":null,"has_3d_model":false,"image_url":null,"decayed_at":null,"tle_current":{"epoch":"2026-05-25T05:31:51.940128Z","epoch_age_seconds":51277,"freshness":"FRESH","line1":"1 68414U 26066C   26145.23046227  .00000837  00000+0  86287-4 0  9999","line2":"2 68414  84.9669 242.3354 0025108 338.5354  21.4814 14.88582144  8314","mean_motion":14.88582144,"eccentricity":0.0025108,"inclination_deg":84.9669,"raan_deg":242.3354,"arg_perigee_deg":338.5354,"mean_anomaly_deg":21.4814,"bstar":8.6287e-5,"rev_number":831,"period_min":96.736347792709,"perigee_km":584.8380670253,"apogee_km":619.89135441585,"semimajor_km":6980.5017107206,"source":"CELESTRAK","updated_at":"2026-05-25T13:38:07.809654Z"}}}